Georgetown, DE

12:35 AM EDT on September 29, 2016 (GMT -0400)
Sussex County

Weather History for KGED - August, 2013

Change the Weather History Date:

Wednesday, August 21, 2013

  Actual Average Record
Temperature  
Mean Temperature 78 °F 75 °F  
Max Temperature 89 °F 84 °F 97 °F (1983)
Min Temperature 67 °F 66 °F 46 °F (1976)
Degree Days  
Heating Degree Days 0 0  
Month to date heating degree days 0 0  
Since 1 June heating degree days 0 13  
Since 1 July heating degree days 0 0  
Cooling Degree Days 13 10  
Month to date cooling degree days 184 237  
Year to date cooling degree days 1091 937  
Since 1 June cooling degree days 934 843  
Growing Degree Days 28 (Base 50)    
Moisture  
Dew Point 68 °F    
Average Humidity 69    
Maximum Humidity 93    
Minimum Humidity 45    
Precipitation  
Precipitation 0.00 in 0.14 in 2.03 in (1986)
Month to date precipitation 6.16 2.29  
Year to date precipitation 39.88 28.03  
Sea Level Pressure  
Sea Level Pressure 30.18 in    
Wind  
Wind Speed 5 mph (SW)    
Max Wind Speed 12 mph    
Max Gust Speed 15 mph    
Visibility 7 miles    
Events Fog    
T = Trace of Precipitation, MM = Missing Value Source: NWS Daily Summary

Daily Weather History Graph

Daily Weather History Graph

Search for Another Location

Airport or City:

Trip Planner

Search our weather history database for the weather conditions in past years. The results will help you decide how hot, cold, wet, or windy it might be!

Date:

Astronomy

Aug. 21, 2013 Rise Set
Actual Time 6:20 AM EDT 7:47 PM EDT
Civil Twilight 5:53 AM EDT 8:15 PM EDT
Nautical Twilight 5:19 AM EDT 8:48 PM EDT
Astronomical Twilight 4:44 AM EDT 9:23 PM EDT
Moon 7:56 PM EDT (8/21) 6:57 AM EDT (8/21)
Length of Visible Light 14h 22m
Length of Day
13h 26m
Full, 100% of the Moon is Illuminated
Aug 21
Full
Aug 28
Last Quarter
Sep 5
New
Sep 12
First Quarter
Sep 19
Full

Hourly Weather History & Observations

Time (EDT) Temp. Heat Index Dew Point Humidity Pressure Visibility Wind Dir Wind Speed Gust Speed Precip Events Conditions
12:54 AM 70.0 °F - 66.9 °F 90% 30.18 in 9.0 mi Calm Calm - N/A   Partly Cloudy
1:54 AM 69.1 °F - 66.9 °F 93% 30.18 in 7.0 mi SSW 3.5 mph - N/A   Clear
2:54 AM 69.1 °F - 66.0 °F 90% 30.18 in 6.0 mi Calm Calm - N/A   Clear
3:54 AM 69.1 °F - 66.0 °F 90% 30.18 in 5.0 mi Calm Calm - N/A   Clear
4:54 AM 68.0 °F - 64.9 °F 90% 30.18 in 5.0 mi Calm Calm - N/A   Clear
5:16 AM 68.0 °F - 66.2 °F 94% 30.18 in 5.0 mi Calm Calm - N/A   Scattered Clouds
5:25 AM 69.8 °F - 66.2 °F 88% 30.18 in 3.0 mi Calm Calm - N/A   Mostly Cloudy
5:50 AM 68.0 °F - 66.2 °F 94% 30.18 in 1.2 mi Calm Calm - N/A   Overcast
5:52 AM 68.0 °F - 66.2 °F 94% 30.18 in 0.8 mi Calm Calm - N/A   Mist
5:54 AM 68.0 °F - 66.0 °F 93% 30.18 in 0.5 mi Calm Calm - N/A Fog Fog
6:54 AM 68.0 °F - 66.0 °F 93% 30.20 in 0.8 mi Calm Calm - N/A   Mist
7:54 AM 72.0 °F - 70.0 °F 93% 30.22 in 0.5 mi SW 5.8 mph - N/A Fog Fog
8:07 AM 71.6 °F - 71.6 °F 100% 30.21 in 1.2 mi SW 4.6 mph - N/A   Overcast
8:29 AM 73.4 °F - 71.6 °F 94% 30.22 in 2.5 mi SSW 4.6 mph - N/A   Overcast
8:42 AM 73.4 °F - 71.6 °F 94% 30.22 in 3.0 mi SSW 5.8 mph - N/A   Mostly Cloudy
8:54 AM 73.9 °F - 72.0 °F 93% 30.22 in 4.0 mi SW 3.5 mph - N/A   Scattered Clouds
9:54 AM 79.0 °F - 73.0 °F 82% 30.22 in 9.0 mi Calm Calm - N/A   Clear
10:54 AM 82.0 °F 86.3 °F 71.1 °F 69% 30.21 in 10.0 mi Variable 4.6 mph - N/A   Clear
11:18 AM 82.4 °F 87.2 °F 71.6 °F 70% 30.21 in 10.0 mi WSW 8.1 mph - N/A   Mostly Cloudy
11:42 AM 84.2 °F 89.6 °F 71.6 °F 66% 30.21 in 10.0 mi Calm Calm - N/A   Mostly Cloudy
11:54 AM 84.0 °F 89.0 °F 71.1 °F 65% 30.21 in 10.0 mi SW 5.8 mph - N/A   Mostly Cloudy
12:54 PM 86.0 °F 90.1 °F 69.1 °F 57% 30.20 in 10.0 mi SW 4.6 mph - N/A   Partly Cloudy
1:54 PM 87.1 °F 92.0 °F 70.0 °F 57% 30.18 in 10.0 mi SW 8.1 mph - N/A   Scattered Clouds
2:54 PM 88.0 °F 92.1 °F 69.1 °F 53% 30.16 in 10.0 mi SSW 9.2 mph - N/A   Scattered Clouds
3:54 PM 87.1 °F 90.6 °F 68.0 °F 53% 30.14 in 10.0 mi WSW 8.1 mph - N/A   Scattered Clouds
4:54 PM 88.0 °F 90.7 °F 66.9 °F 49% 30.12 in 10.0 mi SW 10.4 mph - N/A   Partly Cloudy
5:54 PM 86.0 °F 86.8 °F 63.0 °F 46% 30.12 in 10.0 mi SW 6.9 mph - N/A   Clear
6:54 PM 82.9 °F 85.8 °F 68.0 °F 60% 30.12 in 10.0 mi SSW 4.6 mph - N/A   Clear
7:54 PM 78.1 °F - 69.1 °F 74% 30.12 in 10.0 mi South 8.1 mph - N/A   Clear
8:54 PM 75.9 °F - 66.9 °F 74% 30.12 in 10.0 mi South 8.1 mph - N/A   Clear
9:54 PM 73.9 °F - 66.9 °F 79% 30.12 in 10.0 mi South 5.8 mph - N/A   Clear
10:54 PM 73.0 °F - 68.0 °F 84% 30.14 in 10.0 mi SSW 8.1 mph - N/A   Clear
11:54 PM 73.0 °F - 68.0 °F 84% 30.12 in 9.0 mi SSW 5.8 mph - N/A   Clear